Location: ???????
(55.9142°N, 37.8256°E)
Time: 10:41:59
(UTC+00:00)

GP-B - Pass Details

Date: 14 April 2024
Orbit: 624 x 629 km, 89.8° (Epoch: 18 May)

Event Time Altitude Azimuth Distance (km) Brightness Sun altitude
Rises 00:32:34 0° 359° (N) 2,936 7.2 -14.3°
Reaches altitude 10° 00:34:49 10° 357° (N) 2,023 6.2 -14.1°
Maximum altitude 00:39:13 66° 275° (W) 691 3.1 -13.6°
Enters shadow 00:42:46 15° 196° (SSW) 1,681 4.8 -13.3°
